Probability
0 0 0 0 0 0 0 0 0 0 0 0 0 0 0 0 0 0 0 0 0 0 0 0 0 0 0 0 0 0 0 0 0 0 0 0 0 0
0 0 0 0 0 0 0 0 0 0 0 0 0 0 0 0 0 0 0 0 0 0 0 0 0 0 0 0 0 0 0 0 0 0 0 0 0 0
0 0 0 0 0 0 0 0 0 0 0 0 0 0 0 0 0 0 0 0 0 0 0 0 0 0 0 0 0 0 0 0 0 0 0 0 0 0
0 0 0 0 0 0 0 0 0 0 0 0 0 0 0 0 0 0 0 0 0 0 0 0 0 0 0 0 0 0 0 0 0 0 0 0 0 0
0 0 0 0 0 0 0 0 0 0 0 0 0 0 0 0 0 0 0 0 0 0 0 0 0 0 0 0 0 0 0 0 0 0 0 0 0 0
0 0 0 0 0 0 0 0 0 0 0 0 0 0 0 0 0 0 0 0 0 0 0 0 0 0 0 0 0 0 0 0 0 0 0 0 0 0
0 0 0 0 0 0 0 0 0 0 0 0 0 0 0 0 0 0 0 0 0 0 0 0 0 0 0 0 0 0 0 0 0 0 0 0 0 0
0 0 0 0 0 0 0 0 0 0 0 0 0 0 0 0 0 0 0 0 0 0 0 0 0 0 0 0 0 0 0 0 0 0 0 0 0 0
0 0 0 0 0 0 0 0 0 0 0 0 0 0 0 0 0 0 0 0 0 0 0 0 0 0 0 0 0 0 0 0 0 0 0 0 0 0
0 0 0 0 0 0 0 0 0 0 0 0 0 0 0 0 0 0 0 0 0 0 0 0 0 0 0 0 0 0 0 0 0 0 0 0 0 0
0 0 0 0 0 0 0 0 0 0 0 0 0 0 0 0 0 0 0 0 0 0 0 0 0 0 0 0 0 0 0 0 0 0 0 0 0 0
0 0 0 0 0 0 0 0 0 0 0 0 0 0 0 0 0 0 0 0 0 0 0 0 0 0 0 0 0 0 0 0 0 0 0 0 0 0
0 0 0 0 0 0 0 0 0 0 0 0 0 0 0 0 0 0 0 0 0 0 0 0 0 0 0 0 0 0 0 0 0 0 0 0 0 0
0 0 0 0 0 0 0 0 0 0 0 0 0 0 0 0 0 0 0 0 0 0 0 0 0 0 0 0 0 0 0 0 0 0 0 0 0 0
0 0 0 0 0 0 0 0 0 0 0 0 0 0 0 0 0 0 0 0 0 0 0 0 0 0 0 0 0 0 0 0 0 0 0 0 0 0
0 0 0 0 0 0 0 0 0 0 0 0 0 0 0 0 0 0 0 0 0 0 0 0 0 0 0 0 0 0 0 0 0 0 0 0 0 0
0 0 0 0 0 0 0 0 0 0 0 0 0 0 0 0 0 0 0 0 0 0 0 0 0 0 0 0 0 0 0 0 0 0 0 0 0 0
0 0 0 0 0 0 0 0 0 0 0 0 0 0 0 0 0 0 0 0 0 0 0 0 0 0 0 0 0 0 0 0 0 0 0 0 0 0
0 0 0 0 0 0 0 0 0 0 0 0 0 0 0 0 0 0 0 0 0 0 0 0 0 0 0 0 0 0 0 0 0 0 0 0 0 0
0 0 0 0 0 0 0 0 0 0 0 0 0 0 0 0 0 0 0 0 0 0 0 0 0 0 0 0 0 0 0 0 0 0 0 0 0 0
0 0 0 0 0 0 0 0 0 0 0 0 0 0 0 0 0 0 0 0 0 0 0 0 0 0 0 0 0 0 0 0 0 0 0 0 0 0
0 0 0 0 0 0 0 0 0 0 0 0 0 0 0 0 0 0 0 0 0 0 0 0 0 0 0 0 0 0 0 0 0 0 0 0 0 0
0 0 0 0 0 0 0 0 0 0 0 0 0 0 0 0 0 0 0 0 0 0 0 0 0 0 0 0 0 0 0 0 0 0 0 0 0 0
Wind_Speed
4 4 3 3 3 3 3 3 3 4 5 4 3 3 3 3 7 5 5 13 18 19 20 20 20 20 21 20 20 20 21 21 21 21 22 23 23 23
3 4 4 3 3 3 3 3 4 5 6 4 4 4 4 5 10 6 5 17 18 19 20 20 20 21 21 21 21 21 21 21 21 22 23 23 24 24
4 4 5 4 3 3 3 3 4 4 8 7 4 4 4 6 7 5 6 6 8 17 20 21 21 21 21 21 21 22 22 22 22 22 23 23 24 24
5 5 5 4 5 4 4 4 5 5 6 9 5 4 6 6 6 6 7 7 6 15 20 20 21 21 21 21 21 22 21 21 21 22 23 23 24 24
5 6 6 5 6 5 5 5 5 5 5 6 7 4 4 5 5 6 7 6 7 11 16 17 19 20 21 22 22 22 22 21 21 22 22 23 23 24
5 5 6 6 7 6 5 6 5 5 5 6 7 5 5 5 4 5 6 4 6 7 11 13 17 20 21 22 22 22 21 21 22 22 22 22 22 23
5 5 6 8 10 8 6 5 5 5 5 6 7 6 5 4 5 4 7 6 6 6 6 7 7 6 9 14 18 20 21 21 22 22 21 21 21 21
6 6 6 7 10 13 15 14 11 7 6 6 6 7 8 6 5 6 6 6 6 3 4 6 4 6 6 6 15 21 21 21 21 20 21 21 20 21
5 5 5 6 9 6 10 14 13 16 16 10 8 8 8 6 6 7 7 7 8 4 4 6 4 6 6 8 18 20 20 20 19 19 20 20 20 20
5 6 6 6 7 7 6 6 7 8 10 7 7 8 7 7 7 7 8 7 6 5 4 6 4 5 6 6 15 18 18 18 19 19 19 19 19 19
5 5 5 6 12 14 8 6 7 7 11 15 15 14 16 16 12 5 4 6 7 4 3 4 4 4 5 5 8 14 16 18 19 19 18 18 18 17
4 5 9 10 13 14 7 6 8 8 6 7 9 11 9 10 14 7 4 6 6 5 2 2 3 3 4 3 3 5 7 13 17 17 17 17 17 9
4 4 5 12 14 14 12 6 10 10 5 5 5 5 5 5 5 5 5 5 6 5 3 2 3 2 4 5 4 4 5 5 6 9 12 15 16 12
4 4 5 12 13 14 11 12 16 13 4 3 4 4 4 5 5 5 6 6 6 7 6 4 4 4 4 5 5 4 4 5 5 5 5 10 12 14
4 8 10 12 11 8 11 14 11 5 4 4 5 5 4 5 5 4 4 4 5 5 5 5 5 5 4 5 5 5 5 4 3 3 4 5 5 5
4 7 10 10 8 9 9 7 4 4 5 5 5 5 4 4 4 3 3 3 3 4 4 5 6 5 5 6 6 7 5 4 4 5 5 5 5 4
3 1 2 3 3 3 4 4 4 4 4 4 4 4 5 4 4 3 3 3 3 3 4 4 4 4 6 6 5 5 5 4 4 4 4 5 5 5
5 2 3 4 4 4 4 4 4 4 4 4 4 4 4 4 4 4 3 3 3 4 4 3 3 3 3 4 6 5 4 4 4 5 3 4 6 5
3 3 4 4 4 4 4 4 4 4 4 4 4 4 4 4 4 4 4 3 3 3 3 3 2 1 3 4 5 3 3 4 4 4 4 4 5 6
3 4 4 4 4 4 4 4 4 4 4 4 4 4 3 4 4 4 3 3 4 4 3 3 2 2 3 3 4 4 6 4 4 5 4 4 5 7
4 4 4 4 4 4 4 4 4 4 4 4 4 4 3 3 4 4 4 7 5 3 4 4 4 6 3 2 3 4 4 7 7 5 4 4 4 4
5 5 5 5 5 4 5 4 4 4 4 4 4 4 3 3 4 5 4 4 4 4 4 4 4 3 1 2 4 4 5 5 7 9 8 5 3 3
5 5 5 5 5 4 4 5 6 5 4 4 4 4 4 4 4 4 4 4 4 4 3 3 3 2 2 2 3 3 5 5 4 4 4 7 8 9
Wind_Direction
210 213 219 226 217 216 207 192 210 276 286 263 267 263 260 269 288 287 275 296 303 303 303 302 301 301 300 299 298 298 298 297 297 296 294 292 291 291
208 214 228 232 230 223 219 216 207 225 265 263 252 260 273 287 292 291 277 298 301 301 300 300 299 298 298 298 298 297 297 297 296 296 296 295 294 293
221 223 237 235 237 237 230 226 224 220 259 275 257 265 269 273 283 278 276 275 281 294 298 299 298 298 297 297 297 297 296 296 296 296 297 296 295 294
229 231 243 243 246 244 237 239 239 230 244 276 281 271 262 265 267 274 284 284 274 290 296 298 299 299 299 298 298 297 295 296 296 296 297 296 295 294
226 230 240 239 249 250 246 247 248 252 241 262 278 268 266 268 274 277 275 275 279 287 293 296 298 299 298 298 297 297 296 295 295 294 295 294 294 294
231 233 239 238 246 252 253 250 252 255 255 261 273 275 267 266 266 278 287 270 274 280 283 287 291 295 296 297 298 299 298 296 294 293 293 293 293 293
245 247 249 256 261 264 264 257 249 254 259 265 274 280 275 276 271 266 282 283 269 261 266 272 279 277 284 290 296 295 294 293 292 293 294 295 295 294
248 256 261 265 273 280 283 283 278 272 268 263 271 274 275 268 269 271 280 291 288 249 253 270 264 269 271 266 284 291 294 295 294 295 297 298 298 296
243 254 267 269 280 271 280 287 287 286 283 279 272 270 274 271 273 275 270 273 277 270 267 277 265 269 271 280 291 295 297 299 300 300 299 300 300 299
244 246 254 264 269 277 270 270 269 274 280 282 268 268 269 269 260 267 272 276 272 265 250 272 272 269 277 276 288 294 299 303 305 302 301 301 302 302
255 254 259 260 276 289 287 275 278 276 285 287 286 288 293 299 301 297 292 292 292 280 238 251 270 280 273 268 281 294 303 307 307 305 304 303 303 305
260 261 271 279 285 292 284 271 277 278 278 284 287 292 294 294 299 290 274 281 290 286 246 250 271 294 292 266 267 283 295 300 305 307 307 306 306 308
254 258 263 285 292 294 295 280 284 294 284 277 277 278 281 277 276 269 253 252 266 266 259 256 266 259 264 289 284 271 272 281 294 297 302 305 308 308
254 253 263 288 296 299 299 298 302 307 297 287 283 280 280 278 273 268 261 252 245 255 262 252 256 260 273 283 287 286 286 277 279 283 286 304 308 309
270 287 296 302 305 302 299 303 307 302 288 284 284 280 272 271 275 277 275 271 270 265 262 252 253 261 258 269 280 284 297 292 280 282 291 295 291 296
288 294 303 307 305 301 302 303 294 278 284 277 280 280 280 279 280 279 280 284 291 291 276 262 257 254 260 263 270 282 282 282 293 294 294 289 285 281
289 280 286 288 284 283 284 281 280 287 293 285 283 287 289 288 286 282 271 270 265 283 297 297 280 263 252 258 271 275 282 284 284 293 298 299 289 283
306 281 273 271 273 279 285 287 284 281 278 282 282 281 286 290 292 291 279 267 273 279 282 286 308 323 323 290 243 262 279 285 295 297 288 295 298 296
290 271 268 268 271 274 274 275 276 277 274 276 278 277 279 284 287 290 289 283 281 280 280 282 287 292 305 304 295 266 284 296 302 302 291 284 291 298
263 264 267 267 268 269 272 275 277 281 277 275 277 275 273 279 285 284 282 280 285 285 289 288 272 258 257 275 286 290 294 287 291 299 300 293 282 293
266 264 264 265 265 265 266 267 267 270 272 271 271 270 269 272 278 280 278 287 292 281 284 284 273 292 282 278 291 291 291 295 297 293 296 304 308 310
266 266 265 264 263 262 262 262 264 266 267 263 266 266 263 262 268 273 274 277 275 271 274 279 289 300 275 261 279 288 296 305 310 311 305 292 292 306
268 267 266 267 264 262 259 259 261 262 258 255 257 258 260 265 264 264 266 268 271 273 281 291 298 287 266 256 268 282 294 303 307 316 308 311 308 299